,,Stat6,,Stat2,,Stat8,,Stat9,,Stat10,,Wind1,,Wind1,
time,status,PA1M_AVG,status,PR1M_SUM,status,RH1M_AVG,status,SR1M_AVG,status,TA1M_AVG,status,W1dAve1m,status,W1sAve1m,
2009-01-29, 00:00:00,VALID,917.486,VALID,0,VALID,100,VALID,0.0849042,VALID,19.0817,VALID,47,VALID,0,
2009-01-29, 00:01:00,VALID,917.466,VALID,0,VALID,100,VALID,0.0679233,VALID,19.0692,VALID,50,VALID,0.271635,
2009-01-29, 00:02:00,VALID,917.44,VALID,0,VALID,100,VALID,0.0849042,VALID,19.0462,VALID,61,VALID,0.0482639,
2009-01-29, 00:03:00,VALID,917.42,VALID,0,VALID,100,VALID,0.0679233,VALID,19.0078,VALID,63,VALID,0.0678819,
2009-01-29, 00:04:00,VALID,917.389,VALID,0,VALID,100,VALID,0.0679233,VALID,18.9756,VALID,65,VALID,0.0779345,
2009-01-29, 00:05:00,VALID,917.372,VALID,0,VALID,100,VALID,0.0679233,VALID,18.9654,VALID,75,VALID,0,
2009-01-29, 00:06:00,VALID,917.359,VALID,0,VALID,100,VALID,0.0849042,VALID,18.9614,VALID,85,VALID,0,
2009-01-29, 00:07:00,VALID,917.339,VALID,0,VALID,100,VALID,0.0849042,VALID,18.9716,VALID,78,VALID,0,
2009-01-29, 00:08:00,VALID,917.333,VALID,0,VALID,100,VALID,-0.169808,VALID,18.9648,VALID,81,VALID,0,
2009-01-29, 00:09:00,VALID,917.311,VALID,0,VALID,100,VALID,-0.152827,VALID,18.9518,VALID,80,VALID,0,
2009-01-29, 00:10:00,VALID,917.31,VALID,0,VALID,100,VALID,-0.135847,VALID,18.972,VALID,61,VALID,0,
2009-01-29, 00:11:00,VALID,917.298,VALID,0,VALID,100,VALID,-0.169808,VALID,18.9553,VALID,68,VALID,0,
2009-01-29, 00:12:00,VALID,917.302,VALID,0,VALID,100,VALID,-0.135847,VALID,18.9618,VALID,66,VALID,0,
2009-01-29, 00:13:00,VALID,917.282,VALID,0,VALID,100,VALID,-0.152827,VALID,18.9513,VALID,68,VALID,0,
2009-01-29, 00:14:00,VALID,917.272,VALID,0,VALID,100,VALID,-0.118866,VALID,18.9416,VALID,70,VALID,0,
2009-01-29, 00:15:01,VALID,917.26,VALID,0,VALID,100,VALID,-0.152827,VALID,18.9453,VALID,70,VALID,0,
2009-01-29, 00:16:00,VALID,917.232,VALID,0,VALID,100,VALID,-0.101885,VALID,18.9548,VALID,77,VALID,0,
2009-01-29, 00:17:00,VALID,917.214,VALID,0,VALID,100,VALID,-0.152827,VALID,18.968,VALID,78,VALID,0,
2009-01-29, 00:18:00,VALID,917.207,VALID,0,VALID,100,VALID,-0.135847,VALID,18.987,VALID,85,VALID,0,
2009-01-29, 00:19:00,VALID,917.199,VALID,0,VALID,100,VALID,-0.118866,VALID,19.0197,VALID,90,VALID,0,
2009-01-29, 00:20:00,VALID,917.187,VALID,0,VALID,100,VALID,-0.118866,VALID,19.0299,VALID,94,VALID,0,
2009-01-29, 00:21:00,VALID,917.185,VALID,0,VALID,100,VALID,-0.135847,VALID,19.0199,VALID,150,VALID,0.0789931,
2009-01-29, 00:22:01,VALID,917.168,VALID,0,VALID,100,VALID,-0.186789,VALID,19.0229,VALID,159,VALID,0,
2009-01-29, 00:23:00,VALID,917.171,VALID,0,VALID,100,VALID,-0.0339617,VALID,19.0342,VALID,159,VALID,0.166853,
2009-01-29, 00:24:00,VALID,917.159,VALID,0,VALID,100,VALID,-0.0509425,VALID,19.0474,VALID,158,VALID,0,
2009-01-29, 00:25:00,VALID,917.138,VALID,0,VALID,100,VALID,-0.0169808,VALID,19.0444,VALID,136,VALID,0,
2009-01-29, 00:26:01,VALID,917.113,VALID,0,VALID,100,VALID,-0.0339617,VALID,19.0083,VALID,115,VALID,0,
2009-01-29, 00:27:01,VALID,917.108,VALID,0,VALID,100,VALID,-0.0339617,VALID,19.0018,VALID,114,VALID,0,
2009-01-29, 00:28:00,VALID,917.092,VALID,0,VALID,100,VALID,-0.0339617,VALID,18.9986,VALID,114,VALID,0,
2009-01-29, 00:29:00,VALID,917.091,VALID,0,VALID,100,VALID,-0.0509425,VALID,19.0155,VALID,114,VALID,0,
2009-01-29, 00:30:00,VALID,917.074,VALID,0,VALID,100,VALID,-0.0679233,VALID,19.028,VALID,114,VALID,0,
2009-01-29, 00:31:00,VALID,917.058,VALID,0,VALID,100,VALID,-0.101885,VALID,19.0746,VALID,114,VALID,0,
2009-01-29, 00:32:01,VALID,917.037,VALID,0,VALID,100,VALID,-0.0849042,VALID,19.0736,VALID,117,VALID,0,
2009-01-29, 00:33:00,VALID,917.01,VALID,0,VALID,100,VALID,-0.0679233,VALID,19.0998,VALID,120,VALID,0,
2009-01-29, 00:34:01,VALID,916.981,VALID,0,VALID,100,VALID,-0.0509425,VALID,19.0961,VALID,120,VALID,0,
2009-01-29, 00:35:01,VALID,916.958,VALID,0,VALID,100,VALID,-0.0679233,VALID,19.1024,VALID,120,VALID,0,
2009-01-29, 00:36:00,VALID,916.944,VALID,0,VALID,100,VALID,-0.0679233,VALID,19.1191,VALID,122,VALID,0,
2009-01-29, 00:37:00,VALID,916.946,VALID,0,VALID,100,VALID,-0.0679233,VALID,19.1358,VALID,125,VALID,0,
2009-01-29, 00:38:00,VALID,916.958,VALID,0,VALID,100,VALID,0,VALID,19.1415,VALID,129,VALID,0,
2009-01-29, 00:39:00,VALID,916.977,VALID,0,VALID,100,VALID,0.0169808,VALID,19.1216,VALID,148,VALID,0,
2009-01-29, 00:40:00,VALID,916.986,VALID,0,VALID,100,VALID,0,VALID,19.1088,VALID,167,VALID,0,
2009-01-29, 00:41:00,VALID,916.981,VALID,0,VALID,100,VALID,0,VALID,19.0991,VALID,167,VALID,0,
2009-01-29, 00:42:01,VALID,916.978,VALID,0,VALID,100,VALID,-0.0169808,VALID,19.1026,VALID,168,VALID,0,
2009-01-29, 00:43:00,VALID,916.974,VALID,0,VALID,100,VALID,-0.0339617,VALID,19.1123,VALID,168,VALID,0,
2009-01-29, 00:44:01,VALID,916.953,VALID,0,VALID,100,VALID,0,VALID,19.1118,VALID,168,VALID,0,
2009-01-29, 00:45:00,VALID,916.921,VALID,0,VALID,100,VALID,0,VALID,19.1253,VALID,169,VALID,0,
2009-01-29, 00:46:00,VALID,916.905,VALID,0,VALID,100,VALID,-0.0169808,VALID,19.1021,VALID,171,VALID,0,
2009-01-29, 00:47:01,VALID,916.893,VALID,0,VALID,100,VALID,0,VALID,19.1056,VALID,171,VALID,0,
2009-01-29, 00:48:00,VALID,916.874,VALID,0,VALID,100,VALID,0,VALID,19.1183,VALID,171,VALID,0,
2009-01-29, 00:49:00,VALID,916.864,VALID,0,VALID,100,VALID,-0.0169808,VALID,19.1513,VALID,171,VALID,0,
2009-01-29, 00:50:00,VALID,916.847,VALID,0,VALID,100,VALID,0,VALID,19.1635,VALID,171,VALID,0,
2009-01-29, 00:51:00,VALID,916.831,VALID,0,VALID,100,VALID,-0.0169808,VALID,19.1802,VALID,171,VALID,0,
2009-01-29, 00:52:00,VALID,916.821,VALID,0,VALID,100,VALID,-0.0509425,VALID,19.2069,VALID,171,VALID,0,
2009-01-29, 00:53:00,VALID,916.806,VALID,0,VALID,100,VALID,-0.118866,VALID,19.2084,VALID,171,VALID,0,
2009-01-29, 00:54:01,VALID,916.807,VALID,0,VALID,100,VALID,-0.135847,VALID,19.2144,VALID,171,VALID,0.0552591,
2009-01-29, 00:55:00,VALID,916.801,VALID,0,VALID,100,VALID,-0.169808,VALID,19.2174,VALID,171,VALID,0,
2009-01-29, 00:56:00,VALID,916.802,VALID,0,VALID,100,VALID,-0.135847,VALID,19.2213,VALID,171,VALID,0,
2009-01-29, 00:57:01,VALID,916.796,VALID,0,VALID,100,VALID,-0.135847,VALID,19.2308,VALID,171,VALID,0,
2009-01-29, 00:58:00,VALID,916.779,VALID,0,VALID,100,VALID,-0.135847,VALID,19.247,VALID,171,VALID,0,
2009-01-29, 00:59:01,VALID,916.776,VALID,0,VALID,100,VALID,-0.152827,VALID,19.266,VALID,171,VALID,0,
2009-01-29, 01:00:00,VALID,916.755,VALID,0,VALID,100,VALID,-0.101885,VALID,19.29,VALID,180,VALID,0,
2009-01-29, 01:01:00,VALID,916.761,VALID,0,VALID,100,VALID,-0.101885,VALID,19.2758,VALID,194,VALID,0,
2009-01-29, 01:02:00,VALID,916.753,VALID,0,VALID,100,VALID,-0.101885,VALID,19.2887,VALID,194,VALID,0,
2009-01-29, 01:03:01,VALID,916.773,VALID,0,VALID,100,VALID,-0.135847,VALID,19.3184,VALID,233,VALID,0,
2009-01-29, 01:04:00,VALID,916.777,VALID,0,VALID,100,VALID,-0.152827,VALID,19.296,VALID,303,VALID,0.152158,
2009-01-29, 01:05:00,VALID,916.772,VALID,0,VALID,100,VALID,-0.152827,VALID,19.28,VALID,303,VALID,0,
2009-01-29, 01:06:01,VALID,916.774,VALID,0,VALID,100,VALID,-0.118866,VALID,19.2496,VALID,303,VALID,0,
2009-01-29, 01:07:01,VALID,916.773,VALID,0,VALID,100,VALID,-0.135847,VALID,19.254,VALID,303,VALID,0,
2009-01-29, 01:08:01,VALID,916.768,VALID,0,VALID,100,VALID,-0.0169808,VALID,19.2324,VALID,303,VALID,0,
2009-01-29, 01:09:01,VALID,916.756,VALID,0,VALID,100,VALID,-0.0339617,VALID,19.2261,VALID,303,VALID,0,
2009-01-29, 01:10:01,VALID,916.731,VALID,0,VALID,100,VALID,-0.0169808,VALID,19.2418,VALID,303,VALID,0,
2009-01-29, 01:11:01,VALID,916.718,VALID,0,VALID,100,VALID,-0.0169808,VALID,19.2321,VALID,303,VALID,0,
2009-01-29, 01:12:01,VALID,916.709,VALID,0,VALID,100,VALID,-0.0509425,VALID,19.2226,VALID,303,VALID,0,
2009-01-29, 01:13:01,VALID,916.696,VALID,0,VALID,100,VALID,-0.0679233,VALID,19.1937,VALID,303,VALID,0,
2009-01-29, 01:14:01,VALID,916.678,VALID,0,VALID,100,VALID,-0.0339617,VALID,19.1742,VALID,303,VALID,0,
2009-01-29, 01:15:01,VALID,916.666,VALID,0,VALID,100,VALID,-0.0169808,VALID,19.1645,VALID,303,VALID,0,
2009-01-29, 01:16:01,VALID,916.655,VALID,0,VALID,100,VALID,-0.0339617,VALID,19.1872,VALID,303,VALID,0,
2009-01-29, 01:17:00,VALID,916.639,VALID,0,VALID,100,VALID,-0.0509425,VALID,19.1907,VALID,359,VALID,0,
2009-01-29, 01:18:00,VALID,916.613,VALID,0,VALID,100,VALID,-0.0849042,VALID,19.1258,VALID,38,VALID,0,
2009-01-29, 01:19:00,VALID,916.575,VALID,0,VALID,100,VALID,-0.0679233,VALID,19.0577,VALID,52,VALID,0,
2009-01-29, 01:20:00,VALID,916.56,VALID,0,VALID,100,VALID,-0.0509425,VALID,19.0153,VALID,52,VALID,0,
2009-01-29, 01:21:00,VALID,916.526,VALID,0,VALID,100,VALID,-0.0169808,VALID,18.999,VALID,52,VALID,0,
2009-01-29, 01:22:00,VALID,916.505,VALID,0,VALID,100,VALID,-0.0339617,VALID,18.9863,VALID,52,VALID,0,
2009-01-29, 01:23:00,VALID,916.492,VALID,0,VALID,100,VALID,-0.0339617,VALID,18.9534,VALID,52,VALID,0,
2009-01-29, 01:24:00,VALID,916.465,VALID,0,VALID,100,VALID,-0.0169808,VALID,18.9499,VALID,52,VALID,0,
2009-01-29, 01:25:00,VALID,916.454,VALID,0,VALID,100,VALID,-0.0169808,VALID,18.9564,VALID,52,VALID,0,
2009-01-29, 01:26:00,VALID,916.45,VALID,0,VALID,100,VALID,-0.0339617,VALID,18.9142,VALID,52,VALID,0,
2009-01-29, 01:27:00,VALID,916.448,VALID,0,VALID,100,VALID,-0.0679233,VALID,18.905,VALID,52,VALID,0,
2009-01-29, 01:28:00,VALID,916.435,VALID,0,VALID,100,VALID,0,VALID,18.876,VALID,52,VALID,0,
2009-01-29, 01:29:00,VALID,916.433,VALID,0,VALID,100,VALID,0,VALID,18.8463,VALID,52,VALID,0.196875,
2009-01-29, 01:30:00,VALID,916.432,VALID,0,VALID,100,VALID,0,VALID,18.8299,VALID,52,VALID,0,
2009-01-29, 01:31:00,VALID,916.434,VALID,0,VALID,100,VALID,0,VALID,18.8169,VALID,52,VALID,0.00109012,
2009-01-29, 01:32:00,VALID,916.432,VALID,0,VALID,100,VALID,0,VALID,18.8199,VALID,52,VALID,0,
2009-01-29, 01:33:00,VALID,916.429,VALID,0,VALID,100,VALID,-0.0169808,VALID,18.8456,VALID,52,VALID,0,
2009-01-29, 01:34:00,VALID,916.399,VALID,0,VALID,100,VALID,0,VALID,18.8917,VALID,52,VALID,0,
2009-01-29, 01:35:00,VALID,916.39,VALID,0,VALID,100,VALID,-0.0169808,VALID,18.8818,VALID,52,VALID,0,
2009-01-29, 01:36:00,VALID,916.365,VALID,0,VALID,100,VALID,0,VALID,18.8947,VALID,52,VALID,0,
2009-01-29, 01:37:00,VALID,916.357,VALID,0,VALID,100,VALID,0,VALID,18.8885,VALID,52,VALID,0,
2009-01-29, 01:38:00,VALID,916.336,VALID,0,VALID,100,VALID,-0.0509425,VALID,18.8792,VALID,52,VALID,0,
2009-01-29, 01:39:00,VALID,916.309,VALID,0,VALID,100,VALID,-0.0169808,VALID,18.8855,VALID,52,VALID,0,
2009-01-29, 01:40:00,VALID,916.303,VALID,0,VALID,100,VALID,-0.0509425,VALID,18.8788,VALID,52,VALID,0,
2009-01-29, 01:41:00,VALID,916.283,VALID,0,VALID,100,VALID,0,VALID,18.8915,VALID,52,VALID,0,
2009-01-29, 01:42:00,VALID,916.267,VALID,0,VALID,100,VALID,-0.0169808,VALID,18.9247,VALID,52,VALID,0,
2009-01-29, 01:43:00,VALID,916.233,VALID,0,VALID,100,VALID,-0.0509425,VALID,18.9342,VALID,52,VALID,0,
2009-01-29, 01:44:00,VALID,916.214,VALID,0,VALID,100,VALID,-0.0849042,VALID,18.9474,VALID,52,VALID,0,
2009-01-29, 01:45:00,VALID,916.199,VALID,0,VALID,100,VALID,-0.0509425,VALID,18.9539,VALID,52,VALID,0,
2009-01-29, 01:46:00,VALID,916.184,VALID,0,VALID,100,VALID,-0.0509425,VALID,18.9506,VALID,52,VALID,0,
2009-01-29, 01:47:00,VALID,916.151,VALID,0,VALID,100,VALID,-0.0849042,VALID,18.9376,VALID,46,VALID,0,
2009-01-29, 01:48:00,VALID,916.138,VALID,0,VALID,100,VALID,-0.0679233,VALID,18.9281,VALID,44,VALID,0,
2009-01-29, 01:49:00,VALID,916.132,VALID,0,VALID,100,VALID,-0.0679233,VALID,18.9346,VALID,44,VALID,0,
2009-01-29, 01:50:00,VALID,916.111,VALID,0,VALID,100,VALID,-0.0509425,VALID,18.9212,VALID,44,VALID,0,
2009-01-29, 01:51:00,VALID,916.1,VALID,0,VALID,100,VALID,-0.0169808,VALID,18.9147,VALID,44,VALID,0,
2009-01-29, 01:52:00,VALID,916.084,VALID,0,VALID,100,VALID,-0.0849042,VALID,18.9184,VALID,44,VALID,0,
2009-01-29, 01:53:00,VALID,916.06,VALID,0,VALID,100,VALID,0.0509425,VALID,18.9065,VALID,44,VALID,0,
2009-01-29, 01:54:00,VALID,916.04,VALID,0,VALID,100,VALID,0.0339617,VALID,18.9102,VALID,44,VALID,0,
2009-01-29, 01:55:00,VALID,916.021,VALID,0,VALID,100,VALID,0.0339617,VALID,18.8975,VALID,44,VALID,0,
2009-01-29, 01:56:00,VALID,915.992,VALID,0,VALID,100,VALID,0.0509425,VALID,18.8778,VALID,44,VALID,0,
2009-01-29, 01:57:00,VALID,915.968,VALID,0,VALID,100,VALID,0.0339617,VALID,18.8618,VALID,44,VALID,0,
2009-01-29, 01:58:00,VALID,915.937,VALID,0,VALID,100,VALID,0.0509425,VALID,18.7965,VALID,44,VALID,0,
2009-01-29, 01:59:00,VALID,915.907,VALID,0,VALID,100,VALID,0.0849042,VALID,18.7189,VALID,44,VALID,0,
2009-01-29, 02:00:00,VALID,915.893,VALID,0,VALID,100,VALID,0,VALID,18.6573,VALID,44,VALID,0,
2009-01-29, 02:01:00,VALID,915.87,VALID,0,VALID,100,VALID,0.0679233,VALID,18.6079,VALID,44,VALID,0,
2009-01-29, 02:02:00,VALID,915.842,VALID,0,VALID,100,VALID,0.0679233,VALID,18.6283,VALID,44,VALID,0,
2009-01-29, 02:03:00,VALID,915.826,VALID,0,VALID,100,VALID,0.0679233,VALID,18.7446,VALID,50,VALID,0,
2009-01-29, 02:04:00,VALID,915.799,VALID,0,VALID,100,VALID,-0.0339617,VALID,18.8498,VALID,68,VALID,0,
2009-01-29, 02:05:00,VALID,915.803,VALID,0,VALID,100,VALID,-0.0509425,VALID,18.8947,VALID,71,VALID,0,
2009-01-29, 02:06:00,VALID,915.8,VALID,0,VALID,100,VALID,-0.0169808,VALID,18.7912,VALID,74,VALID,0,
2009-01-29, 02:07:00,VALID,915.799,VALID,0,VALID,100,VALID,-0.0339617,VALID,18.7562,VALID,73,VALID,0,
2009-01-29, 02:08:00,VALID,915.791,VALID,0,VALID,100,VALID,-0.0509425,VALID,18.6587,VALID,73,VALID,0,
2009-01-29, 02:09:00,VALID,915.807,VALID,0,VALID,100,VALID,-0.0169808,VALID,18.5968,VALID,73,VALID,0,
2009-01-29, 02:10:00,VALID,915.811,VALID,0,VALID,100,VALID,-0.0509425,VALID,18.6295,VALID,73,VALID,0,
2009-01-29, 02:11:00,VALID,915.828,VALID,0,VALID,100,VALID,-0.0679233,VALID,18.6422,VALID,74,VALID,0,
2009-01-29, 02:12:00,VALID,915.833,VALID,0,VALID,100,VALID,-0.0339617,VALID,18.6065,VALID,74,VALID,0,
2009-01-29, 02:13:00,VALID,915.829,VALID,0,VALID,100,VALID,-0.0169808,VALID,18.5574,VALID,95,VALID,0,
2009-01-29, 02:14:00,VALID,915.841,VALID,0,VALID,100,VALID,-0.0339617,VALID,18.5509,VALID,132,VALID,0,
2009-01-29, 02:15:00,VALID,915.839,VALID,0,VALID,100,VALID,0,VALID,18.5542,VALID,137,VALID,0,
2009-01-29, 02:16:00,VALID,915.834,VALID,0,VALID,100,VALID,0,VALID,18.5574,VALID,149,VALID,0,
2009-01-29, 02:17:00,VALID,915.841,VALID,0,VALID,100,VALID,0,VALID,18.5637,VALID,149,VALID,0,
2009-01-29, 02:18:00,VALID,915.849,VALID,0,VALID,100,VALID,-0.0169808,VALID,18.5766,VALID,149,VALID,0,
2009-01-29, 02:19:00,VALID,915.864,VALID,0,VALID,100,VALID,-0.0339617,VALID,18.5996,VALID,148,VALID,0,
2009-01-29, 02:20:00,VALID,915.864,VALID,0,VALID,100,VALID,-0.0169808,VALID,18.619,VALID,148,VALID,0,
2009-01-29, 02:21:00,VALID,915.854,VALID,0,VALID,100,VALID,-0.0339617,VALID,18.6228,VALID,148,VALID,0,
2009-01-29, 02:22:00,VALID,915.855,VALID,0,VALID,100,VALID,-0.0169808,VALID,18.6355,VALID,148,VALID,0,
2009-01-29, 02:23:00,VALID,915.848,VALID,0,VALID,100,VALID,-0.0849042,VALID,18.6125,VALID,148,VALID,0,
2009-01-29, 02:24:00,VALID,915.842,VALID,0,VALID,100,VALID,-0.0509425,VALID,18.6128,VALID,148,VALID,0,
2009-01-29, 02:25:00,VALID,915.838,VALID,0,VALID,100,VALID,-0.0679233,VALID,18.5898,VALID,148,VALID,0,
2009-01-29, 02:26:00,VALID,915.845,VALID,0,VALID,100,VALID,-0.0679233,VALID,18.5966,VALID,148,VALID,0,
2009-01-29, 02:27:00,VALID,915.85,VALID,0,VALID,100,VALID,-0.0509425,VALID,18.5996,VALID,149,VALID,0,
2009-01-29, 02:28:00,VALID,915.86,VALID,0,VALID,100,VALID,-0.0679233,VALID,18.6091,VALID,149,VALID,0,
2009-01-29, 02:29:00,VALID,915.881,VALID,0,VALID,100,VALID,-0.0679233,VALID,18.6193,VALID,149,VALID,0,
2009-01-29, 02:30:00,VALID,915.901,VALID,0,VALID,100,VALID,-0.0339617,VALID,18.6225,VALID,149,VALID,0,
2009-01-29, 02:31:00,VALID,915.914,VALID,0,VALID,100,VALID,-0.101885,VALID,18.6223,VALID,173,VALID,0,
2009-01-29, 02:32:00,VALID,915.941,VALID,0,VALID,100,VALID,-0.118866,VALID,18.5806,VALID,180,VALID,0,
2009-01-29, 02:33:00,VALID,915.941,VALID,0,VALID,100,VALID,-0.101885,VALID,18.522,VALID,180,VALID,0,
2009-01-29, 02:34:00,VALID,915.95,VALID,0,VALID,100,VALID,-0.0849042,VALID,18.4698,VALID,177,VALID,0,
2009-01-29, 02:35:00,VALID,915.937,VALID,0,VALID,100,VALID,-0.0849042,VALID,18.4441,VALID,177,VALID,0,
2009-01-29, 02:36:00,VALID,915.93,VALID,0,VALID,100,VALID,-0.0339617,VALID,18.4342,VALID,177,VALID,0,
2009-01-29, 02:37:00,VALID,915.924,VALID,0,VALID,100,VALID,-0.101885,VALID,18.4444,VALID,161,VALID,0.0012429,
2009-01-29, 02:38:00,VALID,915.919,VALID,0,VALID,100,VALID,0,VALID,18.4527,VALID,156,VALID,0,
2009-01-29, 02:39:00,VALID,915.907,VALID,0,VALID,100,VALID,0,VALID,18.4525,VALID,156,VALID,0,
2009-01-29, 02:40:00,VALID,915.919,VALID,0,VALID,100,VALID,0.0509425,VALID,18.4779,VALID,160,VALID,0.0368823,
2009-01-29, 02:41:00,VALID,915.941,VALID,0,VALID,100,VALID,0.0509425,VALID,18.5398,VALID,161,VALID,0,
2009-01-29, 02:42:00,VALID,915.96,VALID,0,VALID,100,VALID,0.0509425,VALID,18.5523,VALID,162,VALID,0,
2009-01-29, 02:43:00,VALID,915.979,VALID,0,VALID,100,VALID,0.0509425,VALID,18.5623,VALID,162,VALID,0,
2009-01-29, 02:44:00,VALID,915.99,VALID,0,VALID,100,VALID,0.0849042,VALID,18.5298,VALID,171,VALID,0,
2009-01-29, 02:45:00,VALID,916.006,VALID,0,VALID,100,VALID,0.0509425,VALID,18.5266,VALID,175,VALID,0,
2009-01-29, 02:46:00,VALID,916.02,VALID,0,VALID,100,VALID,0.0509425,VALID,18.5171,VALID,175,VALID,0,
2009-01-29, 02:47:00,VALID,916.028,VALID,0,VALID,100,VALID,0.0679233,VALID,18.4944,VALID,175,VALID,0,
2009-01-29, 02:48:00,VALID,916.039,VALID,0,VALID,100,VALID,0.0509425,VALID,18.4847,VALID,175,VALID,0,
2009-01-29, 02:49:00,VALID,916.046,VALID,0,VALID,100,VALID,0.0679233,VALID,18.4879,VALID,176,VALID,0,
2009-01-29, 02:50:00,VALID,916.056,VALID,0,VALID,100,VALID,0.0339617,VALID,18.5173,VALID,177,VALID,0,
2009-01-29, 02:51:00,VALID,916.046,VALID,0,VALID,100,VALID,0.0339617,VALID,18.5528,VALID,178,VALID,0.0661204,
2009-01-29, 02:52:00,VALID,916.056,VALID,0,VALID,100,VALID,0.0169808,VALID,18.6179,VALID,178,VALID,0.0662109,
2009-01-29, 02:53:00,VALID,916.054,VALID,0,VALID,100,VALID,-0.0509425,VALID,18.6642,VALID,180,VALID,0.00334821,
2009-01-29, 02:54:00,VALID,916.045,VALID,0,VALID,100,VALID,-0.0509425,VALID,18.7069,VALID,180,VALID,0,
2009-01-29, 02:55:00,VALID,916.052,VALID,0,VALID,100,VALID,-0.0679233,VALID,18.7323,VALID,181,VALID,0.0495384,
2009-01-29, 02:56:00,VALID,916.05,VALID,0,VALID,100,VALID,-0.101885,VALID,18.7747,VALID,187,VALID,0.0371094,
2009-01-29, 02:57:00,VALID,916.049,VALID,0,VALID,100,VALID,-0.0509425,VALID,18.8007,VALID,187,VALID,0.0952744,
2009-01-29, 02:58:00,VALID,916.05,VALID,0,VALID,100,VALID,-0.0679233,VALID,18.8204,VALID,222,VALID,0.0227108,
2009-01-29, 02:59:00,VALID,916.047,VALID,0,VALID,100,VALID,-0.0679233,VALID,18.8204,VALID,222,VALID,0,
2009-01-29, 03:00:00,VALID,916.036,VALID,0,VALID,100,VALID,-0.101885,VALID,18.8171,VALID,215,VALID,0,
2009-01-29, 03:01:00,VALID,916.037,VALID,0,VALID,100,VALID,-0.0849042,VALID,18.7974,VALID,197,VALID,0,
2009-01-29, 03:02:00,VALID,916.026,VALID,0,VALID,100,VALID,-0.0679233,VALID,18.7747,VALID,197,VALID,0,
2009-01-29, 03:03:00,VALID,916.04,VALID,0,VALID,100,VALID,-0.0849042,VALID,18.762,VALID,195,VALID,0,
2009-01-29, 03:04:00,VALID,916.029,VALID,0,VALID,100,VALID,-0.0849042,VALID,18.7423,VALID,152,VALID,0,
2009-01-29, 03:05:00,VALID,916.037,VALID,0,VALID,100,VALID,-0.0679233,VALID,18.7458,VALID,124,VALID,0,
2009-01-29, 03:06:00,VALID,916.048,VALID,0,VALID,100,VALID,-0.0849042,VALID,18.7328,VALID,101,VALID,0,
2009-01-29, 03:07:00,VALID,916.058,VALID,0,VALID,100,VALID,-0.0509425,VALID,18.6677,VALID,103,VALID,0,
2009-01-29, 03:08:00,VALID,916.053,VALID,0,VALID,100,VALID,-0.101885,VALID,18.623,VALID,110,VALID,0.0908628,
2009-01-29, 03:09:00,VALID,916.069,VALID,0,VALID,100,VALID,-0.0849042,VALID,18.5769,VALID,111,VALID,0.144618,
2009-01-29, 03:10:00,VALID,916.072,VALID,0,VALID,100,VALID,-0.0849042,VALID,18.5739,VALID,128,VALID,0.0025436,
2009-01-29, 03:11:00,VALID,916.066,VALID,0,VALID,100,VALID,-0.0509425,VALID,18.5834,VALID,124,VALID,0,
2009-01-29, 03:12:00,VALID,916.064,VALID,0,VALID,100,VALID,-0.0679233,VALID,18.5968,VALID,126,VALID,0,
2009-01-29, 03:13:00,VALID,916.06,VALID,0,VALID,100,VALID,-0.0849042,VALID,18.6028,VALID,135,VALID,0,
2009-01-29, 03:14:00,VALID,916.056,VALID,0,VALID,100,VALID,-0.0679233,VALID,18.6093,VALID,132,VALID,0,
2009-01-29, 03:15:00,VALID,916.054,VALID,0,VALID,100,VALID,-0.0679233,VALID,18.6125,VALID,121,VALID,0.313227,
2009-01-29, 03:16:00,VALID,916.042,VALID,0,VALID,100,VALID,-0.0679233,VALID,18.6188,VALID,116,VALID,0.0514482,
2009-01-29, 03:17:00,VALID,916.053,VALID,0,VALID,100,VALID,-0.0679233,VALID,18.6515,VALID,115,VALID,0,
2009-01-29, 03:18:00,VALID,916.06,VALID,0,VALID,100,VALID,-0.0849042,VALID,18.6809,VALID,124,VALID,0,
2009-01-29, 03:19:00,VALID,916.056,VALID,0,VALID,100,VALID,-0.0679233,VALID,18.6906,VALID,130,VALID,0,
2009-01-29, 03:20:00,VALID,916.053,VALID,0,VALID,100,VALID,-0.101885,VALID,18.7099,VALID,130,VALID,0,
2009-01-29, 03:21:00,VALID,916.042,VALID,0,VALID,100,VALID,-0.0509425,VALID,18.7226,VALID,130,VALID,0,
2009-01-29, 03:22:00,VALID,916.031,VALID,0,VALID,100,VALID,-0.101885,VALID,18.7328,VALID,130,VALID,0,
2009-01-29, 03:23:00,VALID,916.027,VALID,0,VALID,100,VALID,-0.0339617,VALID,18.7423,VALID,130,VALID,0,
2009-01-29, 03:24:00,VALID,916.025,VALID,0,VALID,100,VALID,-0.0339617,VALID,18.739,VALID,130,VALID,0,
2009-01-29, 03:25:00,VALID,916.015,VALID,0,VALID,100,VALID,-0.0679233,VALID,18.7261,VALID,130,VALID,0,
2009-01-29, 03:26:00,VALID,916.005,VALID,0,VALID,100,VALID,-0.0849042,VALID,18.7328,VALID,129,VALID,0,
2009-01-29, 03:27:00,VALID,915.994,VALID,0,VALID,100,VALID,-0.0509425,VALID,18.7363,VALID,113,VALID,0,
2009-01-29, 03:28:00,VALID,915.997,VALID,0,VALID,100,VALID,-0.0509425,VALID,18.7263,VALID,102,VALID,0,
2009-01-29, 03:29:00,VALID,915.995,VALID,0,VALID,100,VALID,-0.101885,VALID,18.7263,VALID,75,VALID,0,
2009-01-29, 03:30:00,VALID,915.982,VALID,0,VALID,100,VALID,-0.0849042,VALID,18.7201,VALID,76,VALID,0,
2009-01-29, 03:31:00,VALID,915.971,VALID,0,VALID,100,VALID,-0.0849042,VALID,18.7066,VALID,81,VALID,0,
2009-01-29, 03:32:00,VALID,915.971,VALID,0,VALID,100,VALID,-0.101885,VALID,18.6971,VALID,87,VALID,0,
2009-01-29, 03:33:00,VALID,915.978,VALID,0,VALID,100,VALID,-0.0509425,VALID,18.7131,VALID,67,VALID,0,
2009-01-29, 03:34:00,VALID,915.995,VALID,0,VALID,100,VALID,-0.0509425,VALID,18.7358,VALID,60,VALID,0,
2009-01-29, 03:35:00,VALID,915.986,VALID,0,VALID,100,VALID,-0.0339617,VALID,18.759,VALID,65,VALID,0,
2009-01-29, 03:36:00,VALID,916.001,VALID,0,VALID,100,VALID,-0.0679233,VALID,18.765,VALID,63,VALID,0,
2009-01-29, 03:37:00,VALID,915.995,VALID,0,VALID,100,VALID,-0.0169808,VALID,18.7455,VALID,61,VALID,0,
2009-01-29, 03:38:00,VALID,915.996,VALID,0,VALID,100,VALID,-0.0169808,VALID,18.7455,VALID,68,VALID,0,
2009-01-29, 03:39:00,VALID,915.996,VALID,0,VALID,100,VALID,-0.0849042,VALID,18.7455,VALID,73,VALID,0,
2009-01-29, 03:40:00,VALID,915.979,VALID,0,VALID,100,VALID,-0.0509425,VALID,18.7682,VALID,89,VALID,0,
2009-01-29, 03:41:00,VALID,915.966,VALID,0,VALID,100,VALID,-0.0339617,VALID,18.7845,VALID,85,VALID,0,
2009-01-29, 03:42:00,VALID,915.953,VALID,0,VALID,100,VALID,0.0169808,VALID,18.794,VALID,99,VALID,0,
2009-01-29, 03:43:00,VALID,915.932,VALID,0,VALID,100,VALID,-0.0339617,VALID,18.7972,VALID,101,VALID,0,
2009-01-29, 03:44:00,VALID,915.921,VALID,0,VALID,100,VALID,-0.0509425,VALID,18.8296,VALID,126,VALID,0,
2009-01-29, 03:45:00,VALID,915.914,VALID,0,VALID,100,VALID,-0.0509425,VALID,18.8364,VALID,116,VALID,0,
2009-01-29, 03:46:00,VALID,915.921,VALID,0,VALID,100,VALID,-0.101885,VALID,18.8428,VALID,117,VALID,0,
2009-01-29, 03:47:00,VALID,915.917,VALID,0,VALID,100,VALID,-0.0509425,VALID,18.8558,VALID,119,VALID,0,
2009-01-29, 03:48:00,VALID,915.939,VALID,0,VALID,100,VALID,-0.0339617,VALID,18.8658,VALID,119,VALID,0,
2009-01-29, 03:49:00,VALID,915.944,VALID,0,VALID,100,VALID,-0.0679233,VALID,18.8855,VALID,119,VALID,0,
2009-01-29, 03:50:00,VALID,915.951,VALID,0,VALID,100,VALID,-0.101885,VALID,18.8947,VALID,119,VALID,0,